sat.trackr.live / text

‹ back to catalog

JILIN-1 GAOFEN 03D51

NORAD 54252 · 2022-155B

PAYLOAD ACTIVE UNKNOWN

§ Identity

Operator
Country
PRC
Launch date
2022-11-16
Launch site
JSC
Launch vehicle
Mass (kg)
RCS (m²)

External: N2YO · Heavens-Above · Gunter

§ Orbital elements

Epoch: 2026-09-20T22:39:07.568640Z

Period
91.56 min
Inclination
97.6335°
Eccentricity
0.0002580
Mean motion
15.72660995 rev/d
Perigee alt
349.6 km
Apogee alt
353.0 km
Semi-major
6,729.4 km
B*
4.3441e-4
RAAN
56.9272°
Arg perigee
348.4935°
Mean anomaly
11.6268°
Rev number
21,474

§ Raw data

JILIN-1 GAOFEN 03D511 54252U 22155B   26263.94383760  .00058434  00000+0  43441-3 0  99942 54252  97.6335  56.9272 0002580 348.4935  11.6268 15.72660995214747

JSON: /api/v1/satellites/54252 · /tle

For live sub-satellite position, see the globe view (requires WebGL).

§ Visibility from observer

Set your observer location to see the next 7 days of passes ≥ 10°. The values pass through the URL so the page stays shareable.

No JS? Fill the form by hand. The geolocation button needs JavaScript.